Weather History for KELZ - June, 2013

Change the Weather History Date:

Friday, June 21, 2013

  Actual Average (KBFD) Record (KBFD)
Temperature  
Mean Temperature 64 °F 63 °F  
Max Temperature 79 °F 75 °F 88 °F (1991)
Min Temperature 51 °F 51 °F 31 °F (1968)
Degree Days  
Heating Degree Days 1 1  
Month to date heating degree days 50  
Since 1 June heating degree days 50  
Since 1 July heating degree days 7678  
Cooling Degree Days 0 2  
Month to date cooling degree days 23  
Year to date cooling degree days 33  
Since 1 June cooling degree days 23  
Growing Degree Days 14 (Base 50)    
Moisture  
Dew Point 51 °F    
Average Humidity 62    
Maximum Humidity 89    
Minimum Humidity 36    
Precipitation  
Precipitation 0.00 in 0.16 in 3.02 in (1972)
Month to date precipitation 3.47  
Year to date precipitation 20.21  
Sea Level Pressure  
Sea Level Pressure 30.27 in    
Wind  
Wind Speed 2 mph (SW)    
Max Wind Speed 9 mph    
Max Gust Speed -    
Visibility 10 miles    
Events      
T = Trace of Precipitation, MM = Missing Value Source: NWS Daily Summary

Daily Weather History Graph

Daily Weather History Graph

Search for Another Location

Airport or City:

Trip Planner

Search our weather history database for the weather conditions in past years. The results will help you decide how hot, cold, wet, or windy it might be!

Date:

Astronomy

Jun. 21, 2013 Rise Set
Actual Time 5:36 AM EDT 8:51 PM EDT
Civil Twilight 5:01 AM EDT 9:26 PM EDT
Nautical Twilight 4:16 AM EDT 10:10 PM EDT
Astronomical Twilight 3:22 AM EDT 11:04 PM EDT
Moon 6:58 PM EDT (6/21) 3:51 AM EDT (6/21)
Length of Visible Light 16h 24m
Length of Day
15h 15m
Waxing Gibbous, 95% of the Moon is Illuminated
Jun 21
Waxing Gibbous
Jun 23
Full
Jun 30
Last Quarter
Jul 8
New
Jul 15
First Quarter

Hourly Weather History & Observations

Time (EDT) Temp. Dew Point Humidity Pressure Visibility Wind Dir Wind Speed Gust Speed Precip Events Conditions
12:56 AM 55.9 °F 46.9 °F 72% 30.27 in 10.0 mi Calm Calm - N/A   Clear
1:56 AM 53.1 °F 46.0 °F 77% 30.28 in 10.0 mi Calm Calm - N/A   Clear
2:56 AM 52.0 °F 46.9 °F 83% 30.28 in 10.0 mi Calm Calm - N/A   Clear
3:56 AM 52.0 °F 48.0 °F 86% 30.27 in 10.0 mi Calm Calm - N/A   Clear
4:56 AM 51.1 °F 48.0 °F 89% 30.28 in 10.0 mi Calm Calm - N/A   Clear
5:56 AM 53.1 °F 46.9 °F 80% 30.28 in 10.0 mi Calm Calm - N/A   Clear
6:56 AM 52.0 °F 48.9 °F 89% 30.28 in 10.0 mi Calm Calm - N/A   Clear
7:56 AM 57.9 °F 51.1 °F 78% 30.28 in 10.0 mi Calm Calm - N/A   Clear
8:56 AM 63.0 °F 54.0 °F 72% 30.29 in 10.0 mi Calm Calm - N/A   Clear
9:56 AM 70.0 °F 55.9 °F 61% 30.30 in 10.0 mi ESE 3.5 mph - N/A   Clear
10:56 AM 73.0 °F 50.0 °F 44% 30.31 in 10.0 mi Variable 5.8 mph - N/A   Clear
11:56 AM 73.0 °F 50.0 °F 44% 30.29 in 10.0 mi Calm Calm - N/A   Clear
12:56 PM 75.0 °F 50.0 °F 41% 30.29 in 10.0 mi West 4.6 mph - N/A   Clear
1:56 PM 75.9 °F 46.9 °F 36% 30.28 in 10.0 mi WSW 9.2 mph - N/A   Clear
2:56 PM 77.0 °F 52.0 °F 42% 30.27 in 10.0 mi SW 8.1 mph - N/A   Clear
3:56 PM 77.0 °F 51.1 °F 40% 30.27 in 10.0 mi Calm Calm - N/A   Mostly Cloudy
4:56 PM 75.9 °F 52.0 °F 43% 30.26 in 10.0 mi SW 4.6 mph - N/A   Partly Cloudy
5:56 PM 75.9 °F 53.1 °F 45% 30.25 in 10.0 mi SSW 5.8 mph - N/A   Partly Cloudy
6:56 PM 73.9 °F 54.0 °F 50% 30.25 in 10.0 mi SW 5.8 mph - N/A   Clear
7:56 PM 73.0 °F 55.0 °F 53% 30.24 in 10.0 mi WSW 3.5 mph - N/A   Partly Cloudy
8:56 PM 70.0 °F 53.1 °F 55% 30.23 in 10.0 mi SW 4.6 mph - N/A   Clear
9:56 PM 70.0 °F 53.1 °F 55% 30.24 in 10.0 mi WSW 4.6 mph - N/A   Mostly Cloudy
10:56 PM 63.0 °F 57.0 °F 81% 30.24 in 10.0 mi Calm Calm - N/A   Clear
11:56 PM 63.0 °F 54.0 °F 72% 30.24 in 10.0 mi SSE 3.5 mph - N/A   Clear